STARLINK-35437

Last updated on Wed Dec 31 2025 00:02:06 GMT+0000 (Coordinated Universal Time)

1 66563U 25268G 25364.58335648 .00077414 00000+0 27953-2 0 9991 2 66563 43.0004 17.2374 0002022 287.2772 14.7878 15.27556374 5919
UTC large
Height (km)
Speed (km/s)
/
Latitude / Longitude
Inclination (degrees)
Orbital Period (minutes)
Azimuth
Elevation
Range (km)
Doppler Factor

Next 0 passes for location: London (51.5072 / 0.1276)

Sorry there are no passes over London.